Voltar ao catálogo

SL-14 R/B

AtivoLEO
NORAD 10541·ROCKET BODY·🇷🇺 Russia

Lançado Dec 27, 1977 de Plesetsk Cosmodrome

Loading…

Próximas Passagens (próximas 24 horas)

TLE

AtualizadoSource: Space-Track

Época: Sep 14, 2026, 21:19 UTC

1 10541U 77123B   26257.88850966  .00000023  00000-0  21053-4 0  9993
2 10541  75.8375 321.1581 0299038 345.9966  13.3005 13.89304494468939

Acompanhe SL-14 R/B em tempo real com AllMySat

Download on the App Store